�������l�o���
Date,Time,MP-1(��Sv/h),MP-2(��Sv/h),MP-3(��Sv/h),MP-4(��Sv/h),MP-5(��Sv/h),MP-6(��Sv/h),MP-7(��Sv/h),MP-8(��Sv/h),����,����(m/s),���J
2018/12/10,00:00,0.767,1.159,0.812,1.467,1.049,0.445,0.792,0.752,�k,1.7,��
2018/12/10,00:10,0.767,1.156,0.813,1.466,1.049,0.444,0.792,0.753,�k�k��,2.2,��
2018/12/10,00:20,0.766,1.158,0.812,1.469,1.047,0.444,0.791,0.752,�k��,2.2,��
2018/12/10,00:30,0.767,1.156,0.814,1.465,1.048,0.445,0.791,0.752,�k�k��,2.2,��
2018/12/10,00:40,0.767,1.156,0.814,1.468,1.048,0.446,0.791,0.754,�k,3.1,��
2018/12/10,00:50,0.765,1.159,0.812,1.465,1.048,0.446,0.793,0.753,�k,3.1,��
2018/12/10,01:00,0.767,1.156,0.814,1.465,1.049,0.444,0.790,0.752,�k,3.4,��
2018/12/10,01:10,0.766,1.155,0.813,1.467,1.047,0.445,0.791,0.751,�k,3.1,��
2018/12/10,01:20,0.766,1.155,0.810,1.466,1.047,0.444,0.793,0.751,�k,1.7,��
2018/12/10,01:30,0.766,1.156,0.812,1.467,1.048,0.445,0.792,0.750,�k,1.4,��
2018/12/10,01:40,0.765,1.156,0.813,1.468,1.045,0.444,0.793,0.751,�k�k��,2.3,��
2018/12/10,01:50,0.766,1.155,0.814,1.467,1.046,0.445,0.793,0.750,�k�k��,2.5,��
2018/12/10,02:00,0.765,1.156,0.812,1.467,1.049,0.444,0.793,0.751,�k�k��,2.9,��
2018/12/10,02:10,0.766,1.155,0.813,1.465,1.048,0.445,0.791,0.753,�k�k��,2.5,��
2018/12/10,02:20,0.765,1.156,0.813,1.466,1.047,0.444,0.791,0.754,�k�k��,1.2,��
2018/12/10,02:30,0.767,1.154,0.813,1.465,1.045,0.445,0.791,0.751,�k,1.7,��
2018/12/10,02:40,0.765,1.157,0.812,1.465,1.046,0.444,0.790,0.752,�k�k��,1.9,��
2018/12/10,02:50,0.767,1.155,0.812,1.466,1.047,0.444,0.791,0.752,�k�k��,1.5,��
2018/12/10,03:00,0.766,1.155,0.813,1.465,1.048,0.445,0.790,0.751,�k�k��,2.0,��
2018/12/10,03:10,0.766,1.155,0.814,1.466,1.046,0.444,0.791,0.753,�k,1.9,��
2018/12/10,03:20,0.765,1.156,0.813,1.467,1.045,0.445,0.791,0.749,�k�k��,2.0,��
2018/12/10,03:30,0.767,1.155,0.812,1.466,1.046,0.444,0.793,0.751,�k,2.3,��
2018/12/10,03:40,0.767,1.154,0.811,1.467,1.045,0.445,0.792,0.750,�k��,1.1,��
2018/12/10,03:50,0.767,1.154,0.812,1.468,1.044,0.444,0.793,0.751,�k,1.5,��
2018/12/10,04:00,0.766,1.155,0.812,1.466,1.044,0.444,0.791,0.752,�k�k��,2.0,��
2018/12/10,04:10,0.769,1.152,0.811,1.464,1.046,0.444,0.792,0.750,�k��,1.9,��
2018/12/10,04:20,0.766,1.152,0.812,1.465,1.045,0.444,0.790,0.752,�k�k��,2.0,��
2018/12/10,04:30,0.765,1.156,0.811,1.467,1.045,0.444,0.791,0.751,�k,1.2,��
2018/12/10,04:40,0.767,1.152,0.812,1.466,1.046,0.444,0.791,0.751,�k��,2.9,��
2018/12/10,04:50,0.766,1.154,0.812,1.466,1.045,0.444,0.791,0.751,�k,1.4,��
2018/12/10,05:00,0.765,1.154,0.810,1.467,1.044,0.445,0.792,0.751,�k��,1.9,��
2018/12/10,05:10,0.765,1.154,0.812,1.466,1.047,0.446,0.792,0.750,�k��,1.4,��
2018/12/10,05:20,0.764,1.155,0.811,1.463,1.046,0.446,0.794,0.752,��,1.9,��
2018/12/10,05:30,0.765,1.154,0.810,1.465,1.046,0.445,0.792,0.752,�k��,1.9,��
2018/12/10,05:40,0.765,1.155,0.811,1.467,1.047,0.444,0.792,0.752,�k�k��,1.4,��
2018/12/10,05:50,0.764,1.153,0.811,1.465,1.043,0.445,0.791,0.753,�k�k��,2.2,��
2018/12/10,06:00,0.765,1.154,0.813,1.464,1.044,0.444,0.792,0.752,�k,2.0,��
2018/12/10,06:10,0.766,1.155,0.812,1.466,1.044,0.444,0.792,0.751,�k�k��,1.2,��
2018/12/10,06:20,0.767,1.152,0.812,1.466,1.043,0.443,0.791,0.752,�k�k��,1.2,��
2018/12/10,06:30,0.766,1.152,0.810,1.465,1.045,0.442,0.793,0.751,-,CALM,��
2018/12/10,06:40,0.765,1.154,0.809,1.467,1.046,0.444,0.791,0.750,��,0.6,��
2018/12/10,06:50,0.763,1.151,0.811,1.465,1.043,0.444,0.791,0.752,���쓌,0.8,��
2018/12/10,07:00,0.763,1.151,0.811,1.466,1.043,0.444,0.791,0.752,�k��,1.1,��
2018/12/10,07:10,0.765,1.153,0.810,1.465,1.044,0.443,0.789,0.753,���k��,0.9,��
2018/12/10,07:20,0.765,1.152,0.809,1.466,1.044,0.444,0.790,0.750,-,CALM,��
2018/12/10,07:30,0.764,1.152,0.810,1.464,1.044,0.442,0.791,0.752,�쓌,0.6,��
2018/12/10,07:40,0.765,1.155,0.810,1.461,1.045,0.445,0.791,0.751,��,0.9,��
2018/12/10,07:50,0.765,1.153,0.811,1.465,1.043,0.445,0.791,0.752,�쓌,0.8,��
2018/12/10,08:00,0.767,1.152,0.809,1.466,1.044,0.446,0.790,0.751,�쓌,0.8,��
2018/12/10,08:10,0.765,1.151,0.812,1.467,1.043,0.443,0.789,0.752,��쓌,0.6,��
2018/12/10,08:20,0.765,1.151,0.813,1.464,1.046,0.444,0.790,0.754,��,0.6,��
2018/12/10,08:30,0.767,1.154,0.809,1.467,1.045,0.443,0.793,0.752,-,CALM,��
2018/12/10,08:40,0.767,1.151,0.812,1.467,1.044,0.445,0.791,0.751,�k��,1.1,��
2018/12/10,08:50,0.766,1.154,0.808,1.467,1.044,0.444,0.792,0.752,�k��,1.2,��
2018/12/10,09:00,0.769,1.153,0.810,1.466,1.046,0.445,0.790,0.752,�k��,2.0,��
2018/12/10,09:10,0.769,1.153,0.812,1.467,1.045,0.442,0.792,0.751,�k�k��,1.1,��
2018/12/10,09:20,0.769,1.154,0.811,1.466,1.044,0.445,0.794,0.752,�k,1.7,��
2018/12/10,09:30,0.771,1.153,0.811,1.468,1.044,0.445,0.795,0.752,�k�k��,1.2,��
2018/12/10,09:40,0.769,1.152,0.813,1.465,1.048,0.445,0.794,0.751,�k�k��,3.2,��
2018/12/10,09:50,0.769,1.150,0.811,1.468,1.046,0.445,0.794,0.752,���k��,2.3,��
2018/12/10,10:00,0.769,1.152,0.813,1.468,1.048,0.446,0.792,0.753,��,1.9,��
2018/12/10,10:10,0.768,1.151,0.811,1.466,1.049,0.445,0.791,0.752,��,1.4,��
2018/12/10,10:20,0.769,1.149,0.811,1.463,1.047,0.446,0.794,0.754,�k��,3.2,��
2018/12/10,10:30,0.768,1.155,0.813,1.467,1.049,0.445,0.793,0.754,�k��,4.4,��
2018/12/10,10:40,0.769,1.156,0.814,1.469,1.050,0.445,0.793,0.752,�k��,5.9,��
2018/12/10,10:50,0.769,-,0.815,1.467,1.049,0.446,0.794,0.753,�k��,5.9,��
2018/12/10,11:00,0.770,-,0.813,1.468,1.052,0.447,0.794,0.754,�k�k��,7.4,��
2018/12/10,11:10,0.768,-,0.813,1.469,1.051,0.446,0.792,0.753,�k��,6.6,��
2018/12/10,11:20,0.771,-,0.816,1.469,1.051,0.445,0.794,0.753,�k��,7.0,��
2018/12/10,11:30,0.769,-,0.812,1.471,1.051,0.446,0.793,0.754,�k��,7.4,��
2018/12/10,11:40,0.771,-,0.815,1.467,1.053,0.447,0.793,0.755,�k�k��,5.7,��
2018/12/10,11:50,0.771,-,0.817,1.471,1.054,0.446,0.794,0.753,�k��,5.3,��
2018/12/10,12:00,0.771,-,0.817,1.470,1.051,0.447,0.795,0.754,���k��,3.7,��
2018/12/10,12:10,0.772,-,0.817,1.468,1.051,0.444,0.795,0.754,�k�k��,4.2,��
2018/12/10,12:20,0.771,-,0.816,1.471,1.049,0.447,0.795,0.754,�k��,2.3,��
2018/12/10,12:30,0.772,-,0.816,1.469,1.051,0.447,0.796,0.756,�k��,1.5,��
2018/12/10,12:40,0.772,-,0.817,1.472,1.053,0.446,0.795,0.755,���쐼,1.7,��
2018/12/10,12:50,0.772,-,0.817,1.473,1.051,0.447,0.799,0.756,�k��,2.0,��
2018/12/10,13:00,0.774,-,0.817,1.470,1.053,0.446,0.797,0.754,���k��,2.5,��
2018/12/10,13:10,0.773,-,0.816,1.471,1.053,0.447,0.795,0.755,���k��,3.2,��
2018/12/10,13:20,0.771,-,0.818,1.471,1.052,0.447,0.795,0.752,�k��,2.9,��
2018/12/10,13:30,0.775,1.159,0.818,1.469,1.052,0.446,0.796,0.752,�k��,3.8,��
2018/12/10,13:40,0.773,1.157,0.815,1.471,1.054,0.446,0.796,0.753,�k��,3.0,��
2018/12/10,13:50,0.773,1.157,0.815,1.471,1.053,0.446,0.794,0.754,�k��,3.3,��
2018/12/10,14:00,0.773,1.156,0.816,1.474,1.053,0.448,0.797,0.754,�k��,3.5,��
2018/12/10,14:10,0.774,1.156,0.817,1.471,1.053,0.447,0.796,0.753,�k��,2.9,��
2018/12/10,14:20,0.773,1.159,0.816,1.471,1.055,0.446,0.795,0.754,�k��,1.7,��
2018/12/10,14:30,0.773,1.159,0.819,1.470,1.056,0.446,0.796,0.754,�k��,2.0,��
2018/12/10,14:40,0.774,1.157,0.817,1.471,1.054,0.446,0.796,0.754,���k��,2.0,��
2018/12/10,14:50,0.772,1.161,0.815,1.474,1.054,0.448,0.795,0.754,�k��,2.9,��
2018/12/10,15:00,0.774,1.160,0.816,1.472,1.053,0.447,0.796,0.755,�k�k��,4.0,��
2018/12/10,15:10,0.774,1.161,0.819,1.471,1.055,0.446,0.797,0.753,�k��,3.8,��
2018/12/10,15:20,0.773,1.160,0.816,1.471,1.056,0.448,0.797,0.754,�k,4.8,��
2018/12/10,15:30,0.773,1.161,0.816,1.469,1.053,0.447,0.796,0.754,�k�k��,5.9,��
2018/12/10,15:40,0.772,1.160,0.817,1.470,1.053,0.447,0.795,0.754,�k�k��,4.8,��
2018/12/10,15:50,0.773,1.161,0.817,1.469,1.052,0.447,0.796,0.753,�k��,4.5,��
2018/12/10,16:00,0.772,1.160,0.816,1.469,1.053,0.445,0.797,0.753,�k��,5.2,��
2018/12/10,16:10,0.772,1.162,0.818,1.468,1.052,0.446,0.796,0.753,�k��,5.2,��
2018/12/10,16:20,0.773,1.164,0.816,1.471,1.054,0.448,0.795,0.754,�k��,5.8,��
2018/12/10,16:30,0.773,1.163,0.817,1.472,1.053,0.447,0.795,0.754,���k��,5.7,��
2018/12/10,16:40,0.771,1.162,0.816,1.474,1.055,0.446,0.796,0.752,�k��,5.6,��
2018/12/10,16:50,0.770,1.163,0.815,1.470,1.053,0.446,0.795,0.753,���k��,4.4,��
2018/12/10,17:00,0.772,1.164,0.816,1.472,1.051,0.447,0.795,0.753,���k��,4.6,��
2018/12/10,17:10,0.771,1.163,0.817,1.472,1.053,0.446,0.795,0.754,���k��,4.6,��
2018/12/10,17:20,0.771,1.165,0.818,1.472,1.054,0.448,0.794,0.753,���k��,4.5,��
2018/12/10,17:30,0.773,1.162,0.820,1.472,1.052,0.446,0.796,0.754,�k��,4.6,��
2018/12/10,17:40,0.772,1.162,0.816,1.470,1.054,0.446,0.796,0.753,�k��,5.4,��
2018/12/10,17:50,0.771,1.163,0.818,1.471,1.053,0.447,0.795,0.754,���k��,5.4,��
2018/12/10,18:00,0.772,1.162,0.815,1.472,1.055,0.446,0.796,0.753,���k��,4.4,��
2018/12/10,18:10,0.771,1.164,0.817,1.471,1.051,0.445,0.795,0.754,�k��,4.5,��
2018/12/10,18:20,0.771,1.164,0.818,1.471,1.054,0.447,0.794,0.752,���k��,4.8,��
2018/12/10,18:30,0.769,1.163,0.818,1.473,1.053,0.447,0.794,0.754,�k��,5.2,��
2018/12/10,18:40,0.771,1.163,0.816,1.471,1.052,0.445,0.791,0.752,�k��,5.3,��
2018/12/10,18:50,0.769,1.160,0.817,1.470,1.052,0.448,0.794,0.752,���k��,5.4,��
2018/12/10,19:00,0.771,1.164,0.816,1.470,1.054,0.446,0.794,0.752,���k��,4.7,��
2018/12/10,19:10,0.771,1.163,0.817,1.469,1.052,0.447,0.792,0.753,���k��,4.9,��
2018/12/10,19:20,0.771,1.162,0.816,1.472,1.052,0.446,0.792,0.753,���k��,4.9,��
2018/12/10,19:30,0.770,1.164,0.817,1.471,1.055,0.446,0.794,0.753,���k��,3.7,��
2018/12/10,19:40,0.771,1.161,0.816,1.470,1.053,0.446,0.794,0.753,���k��,3.2,��
2018/12/10,19:50,0.770,1.164,0.815,1.472,1.052,0.446,0.794,0.752,���k��,3.3,��
2018/12/10,20:00,0.771,1.161,0.815,1.470,1.053,0.448,0.792,0.753,�k��,4.1,��
2018/12/10,20:10,0.770,1.162,0.816,1.470,1.054,0.446,0.793,0.753,���k��,3.2,��
2018/12/10,20:20,0.769,1.162,0.817,1.469,1.054,0.446,0.791,0.753,���k��,3.8,��
2018/12/10,20:30,0.770,1.162,0.815,1.470,1.051,0.446,0.794,0.754,���k��,4.3,��
2018/12/10,20:40,0.769,1.163,0.817,1.469,1.055,0.445,0.793,0.754,���k��,5.8,��
2018/12/10,20:50,0.771,1.163,0.817,1.473,1.053,0.445,0.793,0.753,���k��,5.3,��
2018/12/10,21:00,0.769,1.162,0.815,1.471,1.053,0.445,0.793,0.754,���k��,5.6,��
2018/12/10,21:10,0.769,1.162,0.815,1.471,1.054,0.444,0.792,0.752,�k��,5.1,��
2018/12/10,21:20,0.769,1.163,0.815,1.471,1.052,0.445,0.792,0.754,���k��,5.4,��
2018/12/10,21:30,0.770,1.160,0.814,1.472,1.051,0.446,0.792,0.751,���k��,5.2,��
2018/12/10,21:40,0.770,1.163,0.815,1.470,1.054,0.446,0.794,0.754,�k��,3.9,��
2018/12/10,21:50,0.771,1.162,0.815,1.472,1.051,0.447,0.794,0.752,�k��,5.9,��
2018/12/10,22:00,0.771,1.161,0.818,1.470,1.053,0.447,0.793,0.753,�k�k��,7.9,��
2018/12/10,22:10,0.771,1.164,0.818,1.471,1.053,0.445,0.793,0.752,�k�k��,4.5,��
2018/12/10,22:20,0.770,1.165,0.816,1.471,1.050,0.446,0.793,0.753,�k��,5.1,��
2018/12/10,22:30,0.769,1.160,0.815,1.473,1.051,0.446,0.793,0.754,�k��,4.8,��
2018/12/10,22:40,0.771,1.164,0.815,1.471,1.055,0.448,0.793,0.751,�k��,4.2,��
2018/12/10,22:50,0.769,1.163,0.815,1.471,1.050,0.445,0.795,0.753,�k��,5.7,��
2018/12/10,23:00,0.770,1.163,0.816,1.472,1.051,0.446,0.792,0.753,�k��,5.1,��
2018/12/10,23:10,0.768,1.163,0.817,1.469,1.052,0.445,0.792,0.752,���k��,3.5,��
2018/12/10,23:20,0.771,1.161,0.816,1.473,1.051,0.446,0.794,0.753,���k��,3.2,��
2018/12/10,23:30,0.769,1.160,0.816,1.472,1.052,0.446,0.795,0.752,�k��,3.9,��
2018/12/10,23:40,0.770,1.163,0.816,1.473,1.052,0.447,0.794,0.752,�k��,8.0,��
2018/12/10,23:50,0.770,1.163,0.815,1.472,1.053,0.446,0.792,0.753,�k��,10.2,��
